Weather History for Newberry, MI

Change the Weather History Date:

Saturday, February 9, 2013

  Actual Average Record
Temperature  
Mean Temperature 6 °F -  
Max Temperature 24 °F 25 °F 45 °F (1925)
Min Temperature -11 °F 5 °F -27 °F (1934)
Degree Days  
Heating Degree Days 58    
Moisture  
Dew Point 7 °F    
Average Humidity 84    
Maximum Humidity 93    
Minimum Humidity 68    
Precipitation  
Precipitation 0.00 in - - ()
Sea Level Pressure  
Sea Level Pressure 30.28 in    
Wind  
Wind Speed 4 mph (SSE)    
Max Wind Speed 14 mph    
Max Gust Speed 18 mph    
Visibility 10 miles    
Events Snow    
Averages and records for this station are not official NWS values.
T = Trace of Precipitation, MM = Missing Value Source: NWS Daily Summary

Daily Weather History Graph

Daily Weather History Graph

Search for Another Location

Airport:

Trip Planner

Search our weather history database for the weather conditions in past years. The results will help you decide how hot, cold, wet, or windy it might be!

Date:

Astronomy

Feb. 09, 2013 Rise Set
Actual Time 7:53 AM EST 5:58 PM EST
Civil Twilight 7:22 AM EST 6:30 PM EST
Nautical Twilight 6:46 AM EST 7:05 PM EST
Astronomical Twilight 6:12 AM EST 7:40 PM EST
Moon 7:04 AM EST (2/9) 5:42 PM EST (2/9)
Length of Visible Light 11h 07m
Length of Day
10h 05m
Waning Crescent, 0% of the Moon is Illuminated
Feb 9
Waning Crescent
Feb 10
New
Feb 17
First Quarter
Feb 25
Full
Mar 4
Last Quarter

Hourly Weather History & Observations

Time (EST) Temp. Windchill Dew Point Humidity Pressure Visibility Wind Dir Wind Speed Gust Speed Precip Events Conditions
12:15 AM 1.4 °F - -0.4 °F 92% 30.36 in 10.0 mi Calm Calm - N/A   Clear
12:34 AM 1.4 °F - -2.2 °F 85% 30.36 in 10.0 mi Calm Calm - N/A   Clear
12:54 AM -0.4 °F - -4.0 °F 85% 30.36 in 10.0 mi Calm Calm - N/A   Clear
1:15 AM 1.4 °F - -0.4 °F 92% 30.36 in 10.0 mi Calm Calm - N/A   Clear
1:34 AM 1.4 °F - -0.4 °F 92% 30.37 in 4.0 mi Calm Calm - N/A   Clear
1:55 AM -9.4 °F - -13.0 °F 84% 30.37 in 10.0 mi Calm Calm - N/A   Clear
2:15 AM -5.8 °F - -9.4 °F 84% 30.37 in 10.0 mi Calm Calm - N/A   Clear
2:34 AM -2.2 °F - -7.6 °F 78% 30.37 in 10.0 mi Calm Calm - N/A   Clear
2:55 AM -2.2 °F - -5.8 °F 85% 30.37 in 10.0 mi Calm Calm - N/A   Clear
3:15 AM -5.8 °F - -9.4 °F 84% 30.37 in 10.0 mi Calm Calm - N/A   Clear
3:34 AM -7.6 °F - -11.2 °F 84% 30.37 in 10.0 mi Calm Calm - N/A   Clear
3:55 AM -7.6 °F - -11.2 °F 84% 30.37 in 10.0 mi Calm Calm - N/A   Clear
4:14 AM -4.0 °F - -7.6 °F 85% 30.37 in 10.0 mi Calm Calm - N/A   Clear
4:34 AM -7.6 °F - -13.0 °F 77% 30.37 in 10.0 mi Calm Calm - N/A   Clear
4:55 AM -5.8 °F - -9.4 °F 84% 30.37 in 10.0 mi Calm Calm - N/A   Clear
5:14 AM -9.4 °F - -13.0 °F 84% 30.36 in 10.0 mi Calm Calm - N/A   Clear
5:34 AM -9.4 °F - -13.0 °F 84% 30.36 in 10.0 mi Calm Calm - N/A   Clear
5:54 AM -5.8 °F - -9.4 °F 84% 30.36 in 10.0 mi Calm Calm - N/A   Clear
6:14 AM -11.2 °F - -14.8 °F 84% 30.36 in 10.0 mi Calm Calm - N/A   Clear
6:35 AM -9.4 °F - -14.8 °F 77% 30.36 in 10.0 mi Calm Calm - N/A   Clear
6:54 AM -9.4 °F - -13.0 °F 84% 30.36 in 10.0 mi Calm Calm - N/A   Clear
7:15 AM -9.4 °F - -14.8 °F 77% 30.36 in 10.0 mi Calm Calm - N/A   Clear
7:35 AM -5.8 °F - -7.6 °F 92% 30.36 in 10.0 mi Calm Calm - N/A   Clear
7:54 AM -4.0 °F -12.4 °F -7.6 °F 85% 30.35 in 10.0 mi SSE 3.5 mph - N/A   Clear
8:15 AM -0.4 °F -8.3 °F -4.0 °F 85% 30.36 in 10.0 mi SSE 3.5 mph - N/A Snow Light Snow
8:35 AM -0.4 °F - -2.2 °F 92% 30.36 in 10.0 mi Calm Calm - N/A   Clear
8:54 AM -0.4 °F -8.3 °F -4.0 °F 85% 30.35 in 10.0 mi ESE 3.5 mph - N/A   Clear
9:15 AM 1.4 °F -6.2 °F -2.2 °F 85% 30.35 in 10.0 mi SE 3.5 mph - N/A   Scattered Clouds
9:34 AM 1.4 °F -6.2 °F -2.2 °F 85% 30.34 in 10.0 mi SE 3.5 mph - N/A   Clear
9:55 AM 6.8 °F -3.5 °F 3.2 °F 85% 30.34 in 10.0 mi SE 5.8 mph - N/A   Clear
10:15 AM 10.4 °F -0.4 °F 6.8 °F 85% 30.33 in 10.0 mi SE 6.9 mph - N/A Snow Light Snow
10:34 AM 10.4 °F 0.8 °F 8.6 °F 92% 30.33 in 10.0 mi ESE 5.8 mph - N/A   Clear
10:55 AM 12.2 °F 1.7 °F 10.4 °F 92% 30.32 in 10.0 mi SE 6.9 mph - N/A   Mostly Cloudy
11:14 AM 17.6 °F 5.7 °F 15.8 °F 93% 30.32 in 10.0 mi SE 10.4 mph - N/A   Overcast
11:34 AM 17.6 °F 7.3 °F 15.8 °F 93% 30.32 in 10.0 mi SSE 8.1 mph - N/A   Overcast
11:55 AM 19.4 °F 7.9 °F 17.6 °F 93% 30.32 in 10.0 mi SSE 10.4 mph - N/A   Overcast
12:14 PM 19.4 °F 7.9 °F 17.6 °F 93% 30.32 in 10.0 mi South 10.4 mph 16.1 mph N/A   Overcast
12:35 PM 19.4 °F 7.2 °F 17.6 °F 93% 30.30 in 10.0 mi South 11.5 mph - N/A   Overcast
12:55 PM 19.4 °F 8.6 °F 17.6 °F 93% 30.28 in 10.0 mi South 9.2 mph - N/A   Scattered Clouds
1:14 PM 19.4 °F 6.6 °F 17.6 °F 93% 30.28 in 10.0 mi SE 12.7 mph - N/A   Clear
1:35 PM 19.4 °F 7.9 °F 15.8 °F 86% 30.27 in 10.0 mi SSE 10.4 mph - N/A   Clear
1:55 PM 21.2 °F 10.1 °F 12.2 °F 68% 30.26 in 10.0 mi SSE 10.4 mph - N/A   Clear
2:14 PM 23.0 °F 13.1 °F 15.8 °F 74% 30.25 in 10.0 mi South 9.2 mph - N/A   Clear
2:35 PM 23.0 °F 12.4 °F 17.6 °F 80% 30.25 in 5.0 mi South 10.4 mph - N/A Snow Light Snow
2:55 PM 23.0 °F 13.1 °F 17.6 °F 80% 30.24 in 10.0 mi SSE 9.2 mph - N/A   Mostly Cloudy
3:14 PM 23.0 °F 11.7 °F 17.6 °F 80% 30.24 in 10.0 mi SSE 11.5 mph - N/A   Overcast
3:35 PM 23.0 °F 11.7 °F 17.6 °F 80% 30.23 in 10.0 mi SE 11.5 mph 16.1 mph N/A   Overcast
3:54 PM 21.2 °F 8.3 °F 17.6 °F 86% 30.23 in 10.0 mi SSE 13.8 mph 18.4 mph N/A   Overcast
4:14 PM 21.2 °F 8.3 °F 19.4 °F 93% 30.21 in 10.0 mi SSE 13.8 mph - N/A   Overcast
4:35 PM 21.2 °F 11.7 °F 19.4 °F 93% 30.22 in 10.0 mi SSE 8.1 mph - N/A   Overcast
4:54 PM 23.0 °F 10.6 °F 19.4 °F 86% 30.21 in 10.0 mi SSE 13.8 mph - N/A   Overcast
5:15 PM 21.2 °F 10.1 °F 19.4 °F 93% 30.21 in 10.0 mi SSE 10.4 mph - N/A   Overcast
5:35 PM 21.2 °F 9.5 °F 17.6 °F 86% 30.20 in 10.0 mi SSE 11.5 mph - N/A   Overcast
5:54 PM 21.2 °F 9.5 °F 17.6 °F 86% 30.19 in 10.0 mi SSE 11.5 mph - N/A   Overcast
6:15 PM 21.2 °F 10.1 °F 17.6 °F 86% 30.19 in 10.0 mi SSE 10.4 mph - N/A   Overcast
6:35 PM 21.2 °F 10.1 °F 17.6 °F 86% 30.19 in 10.0 mi SSE 10.4 mph - N/A   Overcast
6:54 PM 21.2 °F 10.1 °F 17.6 °F 86% 30.18 in 10.0 mi SE 10.4 mph - N/A   Overcast
7:15 PM 21.2 °F 9.5 °F 17.6 °F 86% 30.18 in 10.0 mi SE 11.5 mph 17.3 mph N/A   Overcast
7:34 PM 21.2 °F 9.5 °F 17.6 °F 86% 30.17 in 10.0 mi SSE 11.5 mph - N/A   Overcast
7:54 PM 23.0 °F 13.1 °F 17.6 °F 80% 30.16 in 10.0 mi SSE 9.2 mph - N/A   Overcast
8:34 PM 23.0 °F 13.1 °F 17.6 °F 80% 30.15 in 10.0 mi SE 9.2 mph - N/A   Overcast
8:55 PM 23.0 °F 13.9 °F 17.6 °F 80% 30.15 in 10.0 mi SE 8.1 mph - N/A   Overcast
9:15 PM 21.2 °F 10.1 °F 15.8 °F 80% 30.15 in 10.0 mi SE 10.4 mph - N/A   Overcast
9:34 PM 21.2 °F 11.7 °F 15.8 °F 80% 30.14 in 10.0 mi SE 8.1 mph - N/A   Overcast
9:55 PM 23.0 °F 13.9 °F 15.8 °F 74% 30.14 in 10.0 mi SSE 8.1 mph - N/A   Overcast
10:15 PM 24.8 °F 15.3 °F 17.6 °F 74% 30.13 in 10.0 mi SSE 9.2 mph - N/A   Overcast
10:34 PM 24.8 °F 16.1 °F 17.6 °F 74% 30.13 in 10.0 mi SSE 8.1 mph - N/A   Overcast
10:55 PM 24.8 °F 16.1 °F 17.6 °F 74% 30.13 in 10.0 mi SSE 8.1 mph - N/A   Overcast
11:14 PM 24.8 °F 14.0 °F 17.6 °F 74% 30.12 in 10.0 mi SSE 11.5 mph - N/A   Overcast
11:34 PM 24.8 °F 14.6 °F 19.4 °F 80% 30.12 in 10.0 mi SSE 10.4 mph - N/A   Overcast
11:55 PM 24.8 °F 14.6 °F 19.4 °F 80% 30.11 in 10.0 mi SSE 10.4 mph 16.1 mph N/A   Overcast